Location: Unspecified
(49.2170°N, 0.0000°E)
Time: 16:55:29
(UTC+00:00)

Envisat - Pass Details

Date: 25 November 2020
Orbit: 764 x 766 km, 98.1° (Epoch: 20 January)

Event Time Altitude Azimuth Distance (km) Brightness Sun altitude
Rises 18:40:06 0° 223° (SW) 3,224 6.9 -24.2°
Reaches altitude 10° 18:44:07 10° 254° (WSW) 2,305 6.5 -24.9°
Maximum altitude 18:45:54 12° 275° (W) 2,188 6.3 -25.2°
Drops below altitude 10° 18:47:42 10° 296° (WNW) 2,312 6.3 -25.5°
Sets 18:51:45 0° 328° (NNW) 3,246 6.6 -26.1°
